Location: Anuling
(14.1239°N, 120.8922°E)
Time: 05:32:19
(UTC+00:00)

SPOT 1/Viking Rocket - Pass Details

Date: 14 January 2026
Orbit: 772 x 790 km, 98.2° (Epoch: 10 February)

Event Time Altitude Azimuth Distance (km) Brightness Sun altitude
Rises 10:40:02 0° 176° (S) 3,268 7.0 -13.0°
Reaches altitude 10° 10:42:23 10° 180° (S) 2,338 6.2 -13.5°
Maximum altitude 10:47:27 58° 259° (WSW) 906 4.2 -14.7°
Drops below altitude 10° 10:52:31 10° 338° (NNW) 2,330 6.0 -15.8°
Sets 10:54:51 0° 342° (NNW) 3,255 6.8 -16.4°
